Regional Weather Roundup
Issued by NWS

Home | Current Version | Previous Version | Graphics & Text | Print | Product List | Glossary On
Versions: 1 2 3 4 5 6 7 8 9 10 11 12 13 14 15 16 17 18 19 20 21 22 23 24 25 26 27 28 29 30 31 32 33 34 35 36 37 38 39 40 41 42 43 44 45 46 47 48 49 50
985
ASUS43 KDTX 210010
RWRMI
MICHIGAN HOURLY REGIONAL WEATHER ROUNDUP
NATIONAL WEATHER SERVICE DETROIT/PONTIAC MI
700 PM EST FRI JAN 20 2017

NOTE: "FAIR" INDICATES FEW OR NO CLOUDS BELOW 12,000 FEET WITH NO
SIGNIFICANT WEATHER AND/OR OBSTRUCTION TO VISIBILITY.

MIZ047>049-052>055-059>063-066>070-074>076-081>083-210100-
SOUTHEAST LOWER MICHIGAN

CITY           SKY/WX    TMP DP  RH WIND       PRES   REMARKS
ADRIAN         FOG       39  39 100 S3        29.73R VSB 1/2
6HR MIN TEMP:  38; 6HR MAX TEMP:  41;

ALMA           FOG       34  33  99 W7        29.72R VSB 1/2 WCI  27
ANN ARBOR      FOG       39  39 100 S5        29.72R VSB 1
BAD AXE        FOG       34  34 100 CALM      29.70S VSB 1/2
6HR MIN TEMP:  34; 6HR MAX TEMP:  35;

CARO           FOG       35  35 100 CALM      29.70R VSB 3/4
DETROIT CITY   CLOUDY    40  40 100 SW6       29.74R FOG
6HR MIN TEMP:  37; 6HR MAX TEMP:  40;

DETROIT        CLOUDY    40  40 100 S7        29.74R FOG
6HR MIN TEMP:  38; 6HR MAX TEMP:  41; 6HR PCP: TRACE;

FLINT          CLOUDY    37  36  96 SW7       29.73R FOG     WCI  32
6HR MIN TEMP:  35; 6HR MAX TEMP:  37; 6HR PCP: TRACE;

GROSSE ILE     FOG       35  35  99 CALM      29.73R VSB 3/4
6HR MIN TEMP:  34; 6HR MAX TEMP:  40;

HILLSDALE      FOG       39  39 100 CALM      29.70R VSB 1/2
HOWELL         FOG       37  37  97 CALM      29.71R VSB 1

CITY           SKY/WX    TMP DP  RH WIND       PRES   REMARKS
JACKSON        CLOUDY    40  38  93 CALM      29.71R FOG
6HR MIN TEMP:  37; 6HR MAX TEMP:  40;

LAMBERTVILLE   CLOUDY    45  43  92 CALM      29.73R FOG
6HR MIN TEMP:  40; 6HR MAX TEMP:  47;

LANSING        CLOUDY    37  34  89 S5        29.71S WCI  33
6HR MIN TEMP:  36; 6HR MAX TEMP:  37;

LAPEER         FOG       35  35 100 CALM      29.71R VSB 1/4
6HR MIN TEMP:  34; 6HR MAX TEMP:  36;

MASON          FOG       37  37 100 CALM      29.71R VSB 1
MONROE         CLOUDY    41  41 100 CALM      29.73R FOG
MT. CLEMENS    FOG       38  38 100 SW8       29.71R VSB 1/2 WCI  32
6HR MIN TEMP:  37; 6HR MAX TEMP:  38; 6HR PCP: TRACE;

PONTIAC        FOG       37  35  92 SW6       29.71R VSB 1/4 WCI  32
6HR MIN TEMP:  36; 6HR MAX TEMP:  37; 6HR PCP: TRACE;

PORT HOPE        N/A     34  34 100 CALM      29.69R
6HR MIN TEMP:  34; 6HR MAX TEMP:  35; 6HR PCP:  0.02;

PORT HURON     FOG       37  37 100 CALM      29.71R VSB 1/4
TRI CITIES     FOG       34  34 100 CALM      29.71R VSB 1/4
6HR MIN TEMP:  34; 6HR MAX TEMP:  35; 6HR PCP:  0.03;

MIDLAND        CLOUDY    35  34  96 CALM      29.70R FOG
6HR MIN TEMP:  34; 6HR MAX TEMP:  35;

TROY           CLOUDY    39  37  95 SW5       29.75R FOG
SAGINAW HB     FOG       34  32  93 CALM      29.71R VSB 1/2
$$
MIZ043>046-050>051-056>058-064>065-071>073-077>080-210100-
SOUTHWEST LOWER MICHIGAN

CITY           SKY/WX    TMP DP  RH WIND       PRES   REMARKS
BATTLE CREEK   CLOUDY    39  39 100 S3        29.70R FOG
6HR MIN TEMP:  37; 6HR MAX TEMP:  40;

BENTON HARBOR  CLOUDY    42  40  92 SE3       29.69R FOG
6HR MIN TEMP:  40; 6HR MAX TEMP:  42;

BIG RAPIDS     CLOUDY    33  32  96 SE6       29.69R WCI  28
6HR MIN TEMP:  33; 6HR MAX TEMP:  34;

COLDWATER      FOG       41  41 100 CALM      29.71R VSB 3/4
6HR MIN TEMP:  39; 6HR MAX TEMP:  41;

FREMONT        CLOUDY    34  34 100 CALM      29.68S FOG
HOLLAND        CLOUDY    38  36  92 SE5       29.70R WCI  34
6HR MIN TEMP:  37; 6HR MAX TEMP:  38;

GRAND RAPIDS   FOG       35  34  96 E3        29.70R VSB 1/4
6HR MIN TEMP:  35; 6HR MAX TEMP:  36; 6HR PCP: TRACE;

IONIA          FOG       33  33 100 SE3       29.70S VSB 1/4
6HR MIN TEMP:  33; 6HR MAX TEMP:  34;

KALAMAZOO      FOG       40  38  93 SE3       29.70R VSB 1/2
6HR MIN TEMP:  38; 6HR MAX TEMP:  40;

LUDINGTON      CLOUDY    36  36 100 SE5       29.68R FOG     WCI  32
6HR MIN TEMP:  36; 6HR MAX TEMP:  40;

MARSHALL       CLOUDY    39  38  98 CALM      29.70R FOG
6HR MIN TEMP:  37; 6HR MAX TEMP:  40;

MOUNT PLEASANT CLOUDY    34  33  99 CALM      29.71R FOG
6HR MIN TEMP:  33; 6HR MAX TEMP:  35;

MUSKEGON       FOG       37  36  96 SE7       29.69S VSB 3/4 WCI  32
6HR MIN TEMP:  37; 6HR MAX TEMP:  38; 6HR PCP:  0.01;

SOUTH HAVEN    FOG       40  40  99 CALM      29.69R VSB 1
$$
MIZ016>042-210100-
NORTHERN LOWER MICHIGAN

CITY           SKY/WX    TMP DP  RH WIND       PRES   REMARKS
ALPENA         FOG       34  32  92 CALM      29.72R VSB 1/4
6HR MIN TEMP:  33; 6HR MAX TEMP:  34;

BEAVER ISLAND  RAIN      33  33 100 E7        29.69S WCI  27
6HR MIN TEMP:  32; 6HR MAX TEMP:  33;

BELLAIRE       CLOUDY    34  33  96 CALM      29.68S
6HR MIN TEMP:  34; 6HR MAX TEMP:  40;

CADILLAC       CLOUDY    33  32  96 SE6       29.66R FOG     WCI  28
CHARLEVOIX     CLOUDY    35  35  99 E5        29.72R WCI  31
6HR MIN TEMP:  34; 6HR MAX TEMP:  37;

FRANKFORT      CLOUDY    35  35  98 CALM      29.68R FOG
GAYLORD        CLOUDY    36  31  82 CALM      29.67S
6HR MIN TEMP:  34; 6HR MAX TEMP:  37;

GRAYLING       CLOUDY    34  33  96 CALM      29.67S FOG
6HR MIN TEMP:  34; 6HR MAX TEMP:  37;

HARBOR SPRINGS CLOUDY    33  33 100 NE7       29.69F FOG     WCI  27
HOUGHTON LAKE  CLOUDY    33  32  96 CALM      29.68R FOG
6HR MIN TEMP:  33; 6HR MAX TEMP:  36; 6HR PCP: TRACE;

MANISTEE       CLOUDY    37  35  92 CALM      29.68R
OSCODA         CLOUDY    35  34  97 CALM      29.70R FOG
6HR MIN TEMP:  34; 6HR MAX TEMP:  36;

PELLSTON       FOG       34  32  92 E6        29.70R VSB 1/2 WCI  29
6HR MIN TEMP:  32; 6HR MAX TEMP:  35; 6HR PCP: TRACE;

ROGERS CITY    FOG       34  33  96 SE3       29.73R VSB 1/4
TRAVERSE CITY  CLOUDY    37  33  85 CALM      29.67S
6HR MIN TEMP:  36; 6HR MAX TEMP:  38; 6HR PCP: TRACE;

$$
MIZ007>008-015-210100-
EASTERN UPPER MICHIGAN

CITY           SKY/WX    TMP DP  RH WIND       PRES   REMARKS
KINROSS        FOG       32  31  96 E9        29.72R VSB 1/2 WCI  24
6HR MIN TEMP:  32; 6HR MAX TEMP:  34; 6HR PCP: TRACE;

MACKINAC ISLAN FOG       33  33 100 E8        29.71R VSB 1/4 WCI  26
6HR MIN TEMP:  33; 6HR MAX TEMP:  33;

NEWBERRY       FOG       32  32  99 SE6       29.69R VSB 1/2 WCI  27
6HR MIN TEMP:  32; 6HR MAX TEMP:  33;

S. S. MARIE    CLOUDY    33  31  92 SE7       29.72R FOG     WCI  27
6HR MIN TEMP:  33; 6HR MAX TEMP:  35;

MUNISING         N/A     35  34  96 S6        29.69R WCI  30
6HR MIN TEMP:  34; 6HR MAX TEMP:  36; 6HR PCP:  0.02;

$$
MIZ004>006-011>014-085-210100-
CENTRAL UPPER MICHIGAN

CITY           SKY/WX    TMP DP  RH WIND       PRES   REMARKS
MANISTIQUE     MIX PCPN  32  32 100 CALM      29.70R
6HR MIN TEMP:  32; 6HR MAX TEMP:  33; 6HR PCP:  0.06;

ESCANABA       LGT RAIN  33  32  96 NE3       29.69R
6HR MIN TEMP:  33; 6HR MAX TEMP:  36; 6HR PCP:  0.12;

SAWYER-GWINN   LGT RAIN  34  32  93 W3        29.66S
$$
MIZ001>003-009>011-084-210100-
WESTERN UPPER MICHIGAN

CITY           SKY/WX    TMP DP  RH WIND       PRES   REMARKS
IRON MOUNTAIN  LGT RAIN  33  31  92 CALM      29.64R FOG
6HR MIN TEMP:  32; 6HR MAX TEMP:  34; 6HR PCP:  0.05;

HOUGHTON       LGT RAIN  34  31  88 SE3       29.65R
6HR MIN TEMP:  34; 6HR MAX TEMP:  38; 6HR PCP:  0.02;

COPPER HARBOR    N/A     34  32  92 VRB5      29.66R WCI  30
6HR MIN TEMP:  34; 6HR MAX TEMP:  40;

IRONWOOD       LGT RAIN  36  35  96 SE3       29.62R
6HR MIN TEMP:  36; 6HR MAX TEMP:  39; 6HR PCP:  0.22;

$$

ABBREVIATIONS USED IN REMARKS
   TC - TEMPERATURE IN CELSIUS
  WCI - WIND CHILL INDEX
   HX - HEAT INDEX
  VSB - VISIBILITY





USA.gov is the U.S. government's official web portal to all federal, state and local government web resources and services.